Regional Weather Roundup
Issued by NWS

Home | Current Version | Previous Version | Text Only | Print | Product List | Glossary Off
Versions: 1 2 3 4 5 6 7 8 9 10 11 12 13 14 15 16 17 18 19 20 21 22 23 24 25 26 27 28 29 30 31 32 33 34 35 36 37 38 39 40 41 42 43 44 45 46 47 48 49 50

000
ASUS43 KOAX 241802
RWRNE

WEATHER ROUNDUP FOR NEBRASKA
NATIONAL WEATHER SERVICE OMAHA NE
100 PM CDT FRI MAR 24 2017

NOTES: SATELLITE DATA IS BEING USED TO AUGMENT CLOUD COVER ABOVE
       12000 FEET.
       "FAIR" INDICATES FEW OR NO CLOUDS BELOW 12,000 FEET WITH NO
       SIGNIFICANT WEATHER AND/OR OBSTRUCTIONS TO VISIBILITY.

  * THESE STATIONS DO NOT REPORT WEATHER SUCH AS RAIN...SNOW OR FOG.

NEZ001>004-019>022-054>056-241900-
NEBRASKA PANHANDLE

CITY           SKY/WX    TMP DP  RH WIND       PRES   REMARKS
SCOTTSBLUFF    MOSUNNY   55  35  47 N21G28    30.11R
6HR MIN TEMP:  41; 6HR MAX TEMP:  55;

CHADRON        PTSUNNY   52  39  61 N9        30.12S
6HR MIN TEMP:  37; 6HR MAX TEMP:  52;

KIMBALL        CLOUDY    46  38  72 N21G31    30.10R
SIDNEY         CLOUDY    44  36  73 N26G37    30.09R
6HR MIN TEMP:  39; 6HR MAX TEMP:  45; 6HR PCP:  0.02;

$$

NEZ057>060-069>072-079>082-241900-
SOUTHWEST NEBRASKA

CITY           SKY/WX    TMP DP  RH WIND       PRES   REMARKS
NORTH PLATTE   CLOUDY    44  39  82 N32G41    29.95R
6HR MIN TEMP:  41; 6HR MAX TEMP:  45; 6HR PCP:  0.11;

IMPERIAL       CLOUDY    43  39  86 N29G40    29.97R
6HR MIN TEMP:  42; 6HR MAX TEMP:  45; 6HR PCP:  0.02;

LEXINGTON      CLOUDY    42  38  87 NE17G29   29.95R
MCCOOK         LGT RAIN  42  41  96 NE23G33   29.91R FOG
6HR MIN TEMP:  41; 6HR MAX TEMP:  49; 6HR PCP:  0.07;

OGALLALA       CLOUDY    45  39  80 N21       30.04R
$$

NEZ005>010-023>029-035>040-094-241900-
NORTH CENTRAL NEBRASKA

CITY           SKY/WX    TMP DP  RH WIND       PRES   REMARKS
VALENTINE      PTSUNNY   52  35  52 N22G30    30.08R
6HR MIN TEMP:  41; 6HR MAX TEMP:  52;

AINSWORTH      CLOUDY    45  39  79 N17G29    30.07R
BROKEN BOW     LGT RAIN  41  39  93 N25G37    29.96S
6HR MIN TEMP:  40; 6HR MAX TEMP:  43; 6HR PCP:  0.23;

O`NEILL        CLOUDY    39  38  97 N15       30.05R WCI  30
ORD            CLOUDY    40  36  86 N21G28    29.99R WCI  30
6HR MIN TEMP:  39; 6HR MAX TEMP:  43; 6HR PCP:  0.04;

THEDFORD       CLOUDY    44  39  83 N20G25    30.05S
$$

NEZ041-046>049-061>064-073>077-083>087-241900-
SOUTH CENTRAL NEBRASKA

CITY           SKY/WX    TMP DP  RH WIND       PRES   REMARKS
GRAND ISLAND   LGT RAIN  40  40 100 N23       29.97R FOG     WCI  30
6HR MIN TEMP:  40; 6HR MAX TEMP:  48; 6HR PCP:  0.01;

AURORA         CLOUDY    41  40  97 NE20G26   29.96R FOG
HASTINGS       CLOUDY    42  39  89 NE21G29   29.95R FOG
6HR MIN TEMP:  42; 6HR MAX TEMP:  54; 6HR PCP: TRACE;

HEBRON         CLOUDY    47  45  90 N18G25    29.89S
HOLDREGE       LGT RAIN  40  38  92 NE28G38   29.93R WCI  29
KEARNEY *      CLOUDY    39  36  87 N22       29.96R WCI  29
YORK           CLOUDY    43  41  93 N22G29    29.95R FOG
$$

NEZ011>018-030>034-042>045-241900-
NORTHEAST NEBRASKA

CITY           SKY/WX    TMP DP  RH WIND       PRES   REMARKS
NORFOLK        LGT RAIN  39  36  89 NE15G26   29.99R WCI  31
6HR MIN TEMP:  39; 6HR MAX TEMP:  44; 6HR PCP: TRACE;

ALBION         LGT RAIN  40  38  91 N12G22    30.00R WCI  33
BLAIR          CLOUDY    45  43  95 N18       29.93R FOG
FREMONT        CLOUDY    44  43  98 N7        29.97R FOG
TEKAMAH        LGT RAIN  44  42  93 N20       29.97R FOG
6HR MIN TEMP:  44; 6HR MAX TEMP:  48; 6HR PCP:  0.13;

WAYNE          CLOUDY    40  39  97 N18       30.00F WCI  31
$$

NEZ050>053-065>068-078-088>093-241900-
SOUTHEAST NEBRASKA

CITY           SKY/WX    TMP DP  RH WIND       PRES   REMARKS
LINCOLN        CLOUDY    47  43  86 NE18G26   29.94R
6HR MIN TEMP:  47; 6HR MAX TEMP:  55;

OMAHA EPPLEY   CLOUDY    47  43  86 N14       29.93R FOG
6HR MIN TEMP:  47; 6HR MAX TEMP:  53; 6HR PCP:  0.04;

BEATRICE       CLOUDY    52  48  88 NE17G24   29.88S
FALLS CITY     CLOUDY    61  54  77 SE9       29.85S
6HR MIN TEMP:  57; 6HR MAX TEMP:  66; 6HR PCP:  0.13;

NEBRASKA CITY  CLOUDY    53  52  95 N15       29.89S FOG
$$

NEZ044-045-051>053-067-241900-
OMAHA AREA

CITY           SKY/WX    TMP DP  RH WIND       PRES   REMARKS
OMAHA EPPLEY   CLOUDY    47  43  86 N14       29.93R FOG
6HR MIN TEMP:  47; 6HR MAX TEMP:  53; 6HR PCP:  0.04;

BLAIR          CLOUDY    45  43  95 N18       29.93R FOG
FREMONT        CLOUDY    44  43  98 N7        29.97R FOG
MILLARD        CLOUDY    49  46  87 N5        29.94R
OFFUTT AFB     CLOUDY    49  44  84 N7        29.91F
WAHOO          CLOUDY    44  42  92 N17       29.95R FOG
$$




USA.gov is the U.S. government's official web portal to all federal, state and local government web resources and services.